星链-34269 (STARLINK-34269)

导读

STARLINK-34269是美国SpaceX公司于2025年6月13日发射的星链低轨通信卫星,属于全球最大卫星互联网星座的组成部分。卫星搭载先进相控阵天线与激光星间链路技术,支持高速低延迟宽带通信,可覆盖偏远区域,为全球提供稳定互联网接入,助力星链网络覆盖与性能扩容,推动全球互联互通基础设施建设。

Basic Information
目录编号:
64386
目录名称:
STARLINK-34269
国际标识:
2025-127S
轨道中心:
EARTH
卫星名称:
星链-34269
卫星全名:
星链-34269 (STARLINK-34269)
卫星状态:
在轨 (已飞行457 天)
发射日期:
2025-06-13 UTC
国别 :
美国 (US)
星等 :
--
This satellite is enrolled in the Space Conjunction Data Service (SCDS) and the current flight risk assessment level is: No High Risk
Orbit Information
数据来源 国际轨道数据
星历时间: 2026-09-12T14:07:25+0800
19小时前
查看轨道信息
半长轴: 6861.135km
偏心率: 0.0002756
轨道倾角: 43.002°
近地点辐角 243.597°
升交点赤经 205.829°
平近点角 116.460°
近地点: 481.107km
远地点: 484.889km
周期: 94.266分钟
每日圈数: 15.275971
Detailed Information
固有亮度:
5
最大亮度:
2.5
卫星平台:
Starlink V1.0
覆盖范围:
全球
运营商:
太空探索技术公司
运营商所在国:
美国
制造商(研发单位):
太空探索技术公司
制造商所在国:
美国
使用方式:
暂无
Satellite Introduction
Starlink 计划是 SpaceX 推出的全球卫星互联网项目,通过发射低轨道卫星,为全球尤其是偏远地区提供高速、低延迟的互联网服务。自 2019 年起,Starlink 已部署数千颗卫星,旨在缩小全球数字鸿沟,推动互联网普及。该项目还为军事、航空等行业提供通信支持,带来广泛经济效益。
2D Orbit Map
3D Orbit Map
Orbit Altitude Analysis Chart
Orbit Inclination Analysis Chart
Orbit Comprehensive Analysis Chart
View Comprehensive Chart
Conjunction Data List
Event ID Objects TCA Miss Dist (km) Collision Risk Probability Collision Risk Index (CRI) Action
CDM_260913-215405-984406-438621
2026-09-13T
21:54:49+0000
0.680 km
远距离
6.010868E-5 中风险 0.71
CDM_260914-094005-984406-438621
2026-09-14T
09:40:58+0000
0.995 km
远距离
1.731132E-5 中风险 0.6
CDM_260913-232805-984406-438622
2026-09-13T
23:28:58+0000
1.320 km
极远距离
6.551606E-6 低风险 0.51
CDM_260914-111505-984406-438621
2026-09-14T
11:15:07+0000
2.217 km
极远距离
1.497598E-6 低风险 0.39
CDM_260914-080605-984406-438621
2026-09-14T
08:06:48+0000
2.315 km
极远距离
1.371587E-6 低风险 0.38
CDM_260913-085606-329706-438621
OBJECT G (63297)
2026-09-13T
08:56:36+0000
2.912 km
极远距离
1.354915E-6 低风险 0.38
CDM_260913-202005-984406-438621
2026-09-13T
20:20:40+0000
2.359 km
极远距离
1.323869E-6 低风险 0.37
Miss Distance Evolution Trend with All Objects
Collision Probability Evolution Trend with All Objects